Weather Roundup
Issued by NWS Chicago, IL

Home | Current Version | Previous Version | Text Only | Print | Product List | Glossary Off
Versions: 1 2 3 4 5 6 7 8 9 10 11 12 13 14 15 16 17 18 19 20 21 22 23 24 25 26 27 28 29 30 31 32 33 34 35 36 37 38 39 40 41 42 43 44 45 46 47 48 49 50

000
NZUS59 KLOT 251903
HRRLOT

CHICAGO AREA WEATHER ROUNDUP
NATIONAL WEATHER SERVICE CHICAGO/ROMEOVILLE IL
100 PM CST SAT FEB 25 2017

NOTE: "FAIR" INDICATES FEW OR NO CLOUDS BELOW 12,000 FEET WITH NO
SIGNIFICANT WEATHER AND/OR OBSTRUCTIONS TO VISIBILITY.

* THESE STATIONS ARE NOT UNDER NWS QUALITY CONTROL. THEY ALSO MAY NOT
  REPORT WEATHER SUCH AS PRECIPITATION OR FOG.

ILZ005-006-012>014-019>023-252000-
NORTHEAST ILLINOIS

CITY           SKY/WX    TMP DP  RH WIND       PRES   REMARKS
OHARE          FLURRIES  25  14  63 W15G24    29.86R WCI  13
MIDWAY         PTSUNNY   26  12  55 W22       29.88R WCI  12
AURORA         CLOUDY    27  17  66 W21       29.89R WCI  13
LANSING*       CLOUDY    27  17  66 W21G28    29.88R WCI  14
JOLIET*        CLOUDY    28  16  58 W16G23    29.91S WCI  17
WAUKEGAN       CLOUDY    21  11  65 W12G18    29.85R WCI   9
DUPAGE AIRPORT FLURRIES  24  13  62 W16       29.87R WCI  11
WHEELING       CLOUDY    24  11  57 NW16G22   29.88R WCI  11
KANKAKEE*      CLOUDY    29  15  55 W17G26    29.92R WCI  17
MORRIS*        CLOUDY    28  17  66 W18G28    29.91R WCI  15
LEWIS AIRPORT* CLOUDY    26  19  74 W16G25    29.90R WCI  13
NORTHERLY ISL    N/A     25  14  63 W9          N/A  WCI  16
$$

WIZ051-052-058>065-066-070>072-252000-
SOUTHEAST WISCONSIN

CITY           SKY/WX    TMP DP  RH WIND       PRES   REMARKS
MILWAUKEE      FLURRIES  21   9  59 W15G26    29.83R WCI   8
KENOSHA*       LGT SNOW  21  12  68 W21       29.84R WCI   5
RACINE*        FLURRIES  20  10  65 W12G23    29.85R WCI   8
WAUKESHA       CLOUDY    16   9  73 W17G23    29.83S WCI   0
WEST BEND      FLURRIES  19  14  79 W6        29.80R WCI  11
$$

INZ001>003-010>013-019-020-252000-
NORTHWEST INDIANA

CITY           SKY/WX    TMP DP  RH WIND       PRES   REMARKS
GARY*          CLOUDY    28  14  54 W18       29.88R WCI  16
MICHIGAN CITY* NOT AVBL
RENSSELAER*    NOT AVBL
VALPARAISO     CLOUDY    28  15  58 W17G24    29.87R WCI  16
$$

LMZ740>746-252000-
SOUTHERN LAKE MICHIGAN

STATION/POSITION TIME  SKY/WX   TEMP WIND        PRES    VSBY
                                AIR  DIR/SP/G
                 (UTC)          (F)  (DEG/KT/KT) (MB)    (MI)
HARRISON CRIB    1840            25  260/ 20/ 23   N/A
BURNHAM HARBOR   1900            25  270/ 12/ 17   N/A
CALUMET HARBOR   1830            26  260/  8/ 20 1010.7S
BURNS HARBOR     1840            26  260/ 19/ 23 1011.5S
MICHIGAN CITY    1840            24  240/ 26/ 29   N/A
$$

ABBREVIATIONS USED IN REMARKS
   TC - TEMPERATURE IN CELSIUS
  WCI - WIND CHILL INDEX
   HX - HEAT INDEX
  VSB - VISIBILITY
$$




USA.gov is the U.S. government's official web portal to all federal, state and local government web resources and services.